Time,TemperatureF,DewpointF,PressureIn,WindDirection,WindDirectionDegrees,WindSpeedMPH,WindSpeedGustMPH,Humidity,HourlyPrecipIn,Conditions,Clouds,dailyrainin,SoftwareType,DateUTC
2013-02-21 00:04:00,21.0,13.0,30.32,East,80,8.0,8.0,72,0.00,,,0.00,weatherlink.com 1.10,2013-02-21 06:04:00,
2013-02-21 00:19:00,21.1,13.0,30.32,East,84,5.0,11.0,72,0.00,,,0.00,weatherlink.com 1.10,2013-02-21 06:19:00,
2013-02-21 00:35:00,21.1,13.0,30.31,ENE,60,12.0,12.0,72,0.00,,,0.00,weatherlink.com 1.10,2013-02-21 06:35:00,
2013-02-21 00:50:00,21.3,14.0,30.31,East,96,3.0,11.0,73,0.00,,,0.00,weatherlink.com 1.10,2013-02-21 06:50:00,
2013-02-21 01:05:00,21.4,14.0,30.31,ENE,58,10.0,13.0,72,0.00,,,0.00,weatherlink.com 1.10,2013-02-21 07:05:00,
2013-02-21 01:20:00,21.5,14.0,30.31,East,92,6.0,16.0,72,0.00,,,0.00,weatherlink.com 1.10,2013-02-21 07:20:00,
2013-02-21 01:35:00,21.5,13.0,30.30,NE,42,7.0,11.0,71,0.00,,,0.00,weatherlink.com 1.10,2013-02-21 07:35:00,
2013-02-21 01:50:00,21.6,14.0,30.30,ENE,71,9.0,12.0,71,0.00,,,0.00,weatherlink.com 1.10,2013-02-21 07:50:00,
2013-02-21 02:05:00,21.7,14.0,30.31,NE,56,3.0,14.0,71,0.00,,,0.00,weatherlink.com 1.10,2013-02-21 08:05:00,
2013-02-21 02:20:00,21.8,14.0,30.30,ENE,61,7.0,12.0,72,0.00,,,0.00,weatherlink.com 1.10,2013-02-21 08:20:00,
2013-02-21 02:35:00,21.8,14.0,30.30,NE,53,4.0,12.0,71,0.00,,,0.00,weatherlink.com 1.10,2013-02-21 08:35:00,
2013-02-21 02:50:00,21.9,14.0,30.29,ESE,105,12.0,16.0,71,0.00,,,0.00,weatherlink.com 1.10,2013-02-21 08:50:00,
2013-02-21 03:05:00,21.9,14.0,30.26,East,96,13.0,13.0,72,0.00,,,0.00,weatherlink.com 1.10,2013-02-21 09:05:00,
2013-02-21 03:20:00,21.8,14.0,30.24,East,98,3.0,10.0,72,0.00,,,0.00,weatherlink.com 1.10,2013-02-21 09:20:00,
2013-02-21 03:35:00,21.6,14.0,30.23,East,100,6.0,14.0,72,0.00,,,0.00,weatherlink.com 1.10,2013-02-21 09:35:00,
2013-02-21 03:50:00,21.6,14.0,30.21,East,88,7.0,17.0,73,0.00,,,0.00,weatherlink.com 1.10,2013-02-21 09:50:00,
2013-02-21 04:05:00,21.7,14.0,30.20,NE,44,8.0,15.0,73,0.00,,,0.00,weatherlink.com 1.10,2013-02-21 10:05:00,
2013-02-21 04:20:00,21.6,14.0,30.21,East,98,6.0,13.0,73,0.00,,,0.00,weatherlink.com 1.10,2013-02-21 10:20:00,
2013-02-21 04:35:00,21.8,14.0,30.24,ESE,110,5.0,13.0,73,0.00,,,0.00,weatherlink.com 1.10,2013-02-21 10:35:00,
2013-02-21 04:50:00,22.1,14.0,30.23,ESE,107,7.0,12.0,72,0.00,,,0.00,weatherlink.com 1.10,2013-02-21 10:50:00,
2013-02-21 05:05:00,22.1,14.0,30.22,ESE,116,8.0,15.0,72,0.00,,,0.00,weatherlink.com 1.10,2013-02-21 11:05:00,
2013-02-21 05:20:00,22.2,14.0,30.20,ENE,67,9.0,15.0,72,0.00,,,0.00,weatherlink.com 1.10,2013-02-21 11:20:00,
2013-02-21 05:35:00,22.2,14.0,30.21,NE,53,8.0,12.0,72,0.00,,,0.00,weatherlink.com 1.10,2013-02-21 11:35:00,
2013-02-21 05:50:00,22.3,15.0,30.20,East,86,8.0,16.0,73,0.00,,,0.00,weatherlink.com 1.10,2013-02-21 11:50:00,
2013-02-21 06:05:00,22.4,15.0,30.18,ENE,75,9.0,17.0,73,0.00,,,0.00,weatherlink.com 1.10,2013-02-21 12:05:00,
2013-02-21 06:20:00,22.4,15.0,30.19,NE,54,10.0,16.0,73,0.00,,,0.00,weatherlink.com 1.10,2013-02-21 12:20:00,
2013-02-21 06:35:00,22.4,15.0,30.19,East,98,9.0,16.0,74,0.00,,,0.00,weatherlink.com 1.10,2013-02-21 12:35:00,
2013-02-21 06:50:00,22.5,15.0,30.18,ENE,75,9.0,16.0,74,0.00,,,0.00,weatherlink.com 1.10,2013-02-21 12:50:00,
2013-02-21 07:05:00,22.6,15.0,30.21,ENE,63,12.0,15.0,74,0.00,,,0.00,weatherlink.com 1.10,2013-02-21 13:05:00,
2013-02-21 07:20:00,22.8,16.0,30.21,ESE,102,4.0,17.0,74,0.00,,,0.00,weatherlink.com 1.10,2013-02-21 13:20:00,
2013-02-21 07:35:00,22.9,16.0,30.21,ESE,104,11.0,14.0,74,0.00,,,0.00,weatherlink.com 1.10,2013-02-21 13:35:00,
2013-02-21 07:50:00,23.0,16.0,30.19,ESE,111,10.0,18.0,73,0.00,,,0.00,weatherlink.com 1.10,2013-02-21 13:50:00,
2013-02-21 08:05:00,22.9,16.0,30.16,ESE,107,8.0,15.0,74,0.00,,,0.00,weatherlink.com 1.10,2013-02-21 14:05:00,
2013-02-21 08:20:00,22.9,16.0,30.16,ESE,111,10.0,19.0,76,0.00,,,0.00,weatherlink.com 1.10,2013-02-21 14:20:00,
2013-02-21 08:35:00,22.7,17.0,30.17,ESE,121,10.0,18.0,78,0.00,,,0.00,weatherlink.com 1.10,2013-02-21 14:35:00,
2013-02-21 08:50:00,21.7,18.0,30.16,East,90,10.0,18.0,85,0.00,,,0.00,weatherlink.com 1.10,2013-02-21 14:50:00,
2013-02-21 09:05:00,21.1,19.0,30.16,ENE,72,8.0,16.0,90,0.00,,,0.00,weatherlink.com 1.10,2013-02-21 15:05:00,
2013-02-21 09:20:00,21.0,19.0,30.12,NNE,30,10.0,15.0,91,0.00,,,0.00,weatherlink.com 1.10,2013-02-21 15:20:00,
2013-02-21 09:36:00,20.8,19.0,30.11,East,100,10.0,20.0,92,0.00,,,0.00,weatherlink.com 1.10,2013-02-21 15:36:00,
2013-02-21 09:51:00,20.8,19.0,30.07,NE,41,13.0,18.0,92,0.00,,,0.00,weatherlink.com 1.10,2013-02-21 15:51:00,
2013-02-21 10:06:00,20.9,19.0,30.10,NE,38,9.0,16.0,92,0.00,,,0.00,weatherlink.com 1.10,2013-02-21 16:06:00,
2013-02-21 10:21:00,21.1,19.0,30.14,NNW,348,5.0,14.0,92,0.00,,,0.00,weatherlink.com 1.10,2013-02-21 16:21:00,
2013-02-21 10:36:00,21.1,19.0,30.16,NE,52,4.0,10.0,92,0.00,,,0.00,weatherlink.com 1.10,2013-02-21 16:36:00,
2013-02-21 10:51:00,21.1,19.0,30.17,NE,53,6.0,15.0,92,0.00,,,0.00,weatherlink.com 1.10,2013-02-21 16:51:00,
2013-02-21 11:06:00,21.1,19.0,30.11,ENE,59,8.0,13.0,93,0.00,,,0.00,weatherlink.com 1.10,2013-02-21 17:06:00,
2013-02-21 11:21:00,21.1,19.0,30.09,ENE,76,14.0,16.0,93,0.00,,,0.00,weatherlink.com 1.10,2013-02-21 17:21:00,
2013-02-21 11:36:00,21.1,19.0,30.12,ENE,71,12.0,16.0,93,0.00,,,0.00,weatherlink.com 1.10,2013-02-21 17:36:00,
2013-02-21 11:51:00,21.2,20.0,30.13,NE,51,8.0,14.0,93,0.00,,,0.00,weatherlink.com 1.10,2013-02-21 17:51:00,
2013-02-21 12:06:00,21.2,20.0,30.11,NE,38,10.0,15.0,93,0.00,,,0.00,weatherlink.com 1.10,2013-02-21 18:06:00,
2013-02-21 12:36:00,21.3,20.0,30.07,ESE,103,14.0,26.0,93,0.00,,,0.00,weatherlink.com 1.10,2013-02-21 18:36:00,
2013-02-21 12:51:00,21.4,20.0,30.05,East,96,11.0,22.0,93,0.00,,,0.00,weatherlink.com 1.10,2013-02-21 18:51:00,
2013-02-21 13:06:00,21.4,20.0,30.02,NE,50,7.0,20.0,93,0.00,,,0.00,weatherlink.com 1.10,2013-02-21 19:06:00,
2013-02-21 13:21:00,21.6,20.0,30.00,East,94,13.0,24.0,93,0.00,,,0.00,weatherlink.com 1.10,2013-02-21 19:21:00,
2013-02-21 13:36:00,21.8,20.0,30.00,ENE,78,13.0,21.0,93,0.00,,,0.00,weatherlink.com 1.10,2013-02-21 19:36:00,
2013-02-21 13:51:00,22.0,20.0,29.98,ENE,66,9.0,23.0,93,0.00,,,0.00,weatherlink.com 1.10,2013-02-21 19:51:00,
2013-02-21 14:06:00,22.4,21.0,29.98,ENE,70,7.0,18.0,93,0.00,,,0.00,weatherlink.com 1.10,2013-02-21 20:06:00,
2013-02-21 14:21:00,22.7,21.0,29.95,ENE,58,9.0,17.0,93,0.00,,,0.00,weatherlink.com 1.10,2013-02-21 20:21:00,
2013-02-21 14:36:00,22.9,21.0,29.94,East,80,9.0,15.0,93,0.00,,,0.00,weatherlink.com 1.10,2013-02-21 20:36:00,
2013-02-21 14:51:00,23.1,21.0,29.93,NE,53,8.0,23.0,93,0.00,,,0.00,weatherlink.com 1.10,2013-02-21 20:51:00,
2013-02-21 15:06:00,23.3,22.0,29.95,East,85,5.0,18.0,93,0.00,,,0.00,weatherlink.com 1.10,2013-02-21 21:06:00,
2013-02-21 15:21:00,23.4,22.0,29.92,ESE,107,8.0,17.0,93,0.00,,,0.00,weatherlink.com 1.10,2013-02-21 21:21:00,
2013-02-21 15:36:00,23.8,22.0,29.93,NE,55,9.0,14.0,93,0.00,,,0.00,weatherlink.com 1.10,2013-02-21 21:36:00,
2013-02-21 15:51:00,24.1,22.0,29.91,NE,34,6.0,13.0,93,0.00,,,0.00,weatherlink.com 1.10,2013-02-21 21:51:00,
2013-02-21 16:06:00,24.3,23.0,29.87,ENE,71,11.0,17.0,93,0.00,,,0.00,weatherlink.com 1.10,2013-02-21 22:06:00,
2013-02-21 16:21:00,24.2,23.0,29.89,East,82,5.0,17.0,93,0.00,,,0.00,weatherlink.com 1.10,2013-02-21 22:21:00,
2013-02-21 16:36:00,24.3,23.0,29.90,ESE,109,7.0,17.0,93,0.00,,,0.00,weatherlink.com 1.10,2013-02-21 22:36:00,
2013-02-21 16:51:00,24.2,23.0,29.87,East,90,7.0,15.0,93,0.00,,,0.00,weatherlink.com 1.10,2013-02-21 22:51:00,
2013-02-21 17:06:00,24.1,23.0,29.86,ENE,57,10.0,16.0,94,0.00,,,0.00,weatherlink.com 1.10,2013-02-21 23:06:00,
2013-02-21 17:21:00,24.3,23.0,29.87,ENE,67,5.0,19.0,94,0.00,,,0.00,weatherlink.com 1.10,2013-02-21 23:21:00,
2013-02-21 17:36:00,24.3,23.0,29.86,ESE,113,9.0,18.0,94,0.00,,,0.00,weatherlink.com 1.10,2013-02-21 23:36:00,
2013-02-21 17:51:00,24.3,23.0,29.86,ENE,76,5.0,16.0,94,0.00,,,0.00,weatherlink.com 1.10,2013-02-21 23:51:00,
2013-02-21 18:06:00,24.4,23.0,29.86,ESE,105,4.0,15.0,94,0.00,,,0.00,weatherlink.com 1.10,2013-02-22 00:06:00,
2013-02-21 18:21:00,24.5,23.0,29.86,East,98,8.0,13.0,93,0.00,,,0.00,weatherlink.com 1.10,2013-02-22 00:21:00,
2013-02-21 18:36:00,24.5,23.0,29.86,East,88,5.0,14.0,94,0.00,,,0.00,weatherlink.com 1.10,2013-02-22 00:36:00,
2013-02-21 18:52:00,24.5,23.0,29.84,ESE,116,8.0,15.0,94,0.00,,,0.00,weatherlink.com 1.10,2013-02-22 00:52:00,
2013-02-21 19:07:00,24.7,23.0,29.86,ESE,119,5.0,10.0,94,0.00,,,0.00,weatherlink.com 1.10,2013-02-22 01:07:00,
2013-02-21 19:22:00,24.9,24.0,29.86,SE,124,9.0,16.0,94,0.00,,,0.00,weatherlink.com 1.10,2013-02-22 01:22:00,
2013-02-21 19:37:00,25.2,24.0,29.86,ESE,106,7.0,15.0,95,0.00,,,0.00,weatherlink.com 1.10,2013-02-22 01:37:00,
2013-02-21 19:52:00,25.6,24.0,29.86,ESE,119,9.0,11.0,95,0.00,,,0.00,weatherlink.com 1.10,2013-02-22 01:52:00,
2013-02-21 20:07:00,25.9,25.0,29.86,East,95,9.0,10.0,95,0.00,,,0.00,weatherlink.com 1.10,2013-02-22 02:07:00,
2013-02-21 20:22:00,26.2,25.0,29.85,ENE,78,7.0,12.0,95,0.00,,,0.00,weatherlink.com 1.10,2013-02-22 02:22:00,
2013-02-21 20:37:00,26.4,25.0,29.84,SE,131,9.0,13.0,95,0.00,,,0.00,weatherlink.com 1.10,2013-02-22 02:37:00,
2013-02-21 20:52:00,26.6,25.0,29.84,SSE,154,4.0,15.0,95,0.00,,,0.00,weatherlink.com 1.10,2013-02-22 02:52:00,
2013-02-21 21:22:00,27.0,26.0,29.84,SE,127,8.0,11.0,95,0.00,,,0.00,weatherlink.com 1.10,2013-02-22 03:22:00,
2013-02-21 21:37:00,27.1,26.0,29.83,SE,141,7.0,10.0,95,0.00,,,0.00,weatherlink.com 1.10,2013-02-22 03:37:00,
2013-02-21 21:52:00,27.3,26.0,29.83,East,100,5.0,8.0,95,0.00,,,0.00,weatherlink.com 1.10,2013-02-22 03:52:00,
2013-02-21 22:07:00,27.4,26.0,29.84,SSE,150,6.0,7.0,96,0.00,,,0.00,weatherlink.com 1.10,2013-02-22 04:07:00,
2013-02-21 22:22:00,27.7,27.0,29.84,SE,139,6.0,9.0,96,0.00,,,0.00,weatherlink.com 1.10,2013-02-22 04:22:00,
2013-02-21 22:37:00,27.7,27.0,29.84,SSE,157,4.0,7.0,95,0.00,,,0.00,weatherlink.com 1.10,2013-02-22 04:37:00,
2013-02-21 22:52:00,27.7,27.0,29.83,SE,143,5.0,7.0,96,0.00,,,0.00,weatherlink.com 1.10,2013-02-22 04:52:00,
2013-02-21 23:07:00,27.8,27.0,29.83,SE,136,5.0,7.0,96,0.00,,,0.00,weatherlink.com 1.10,2013-02-22 05:07:00,
2013-02-21 23:22:00,27.8,27.0,29.83,ESE,119,7.0,7.0,96,0.00,,,0.00,weatherlink.com 1.10,2013-02-22 05:22:00,
2013-02-21 23:37:00,27.9,27.0,29.83,SE,144,6.0,6.0,96,0.00,,,0.00,weatherlink.com 1.10,2013-02-22 05:37:00,
2013-02-21 23:52:00,27.9,27.0,29.82,SE,135,2.0,6.0,96,0.00,,,0.00,weatherlink.com 1.10,2013-02-22 05:52:00,